• In Czech Republic
  • List of Countries
  • For 7 days
  • Water Temperature
  • Satellite Maps
  • Weather Map
  • Weather Widgets
  • user-avatar
    Login

    Hourly Weather Wakefield

    Today, 11 December, Monday

    Time Temperature Precipitation Wind Pressure Humidity
    00:00 -2°C° 0 mm 3 mps 731 mmHg 84%
    01:00 -2°C° 0 mm 3 mps 732 mmHg 84%
    02:00 -2°C° 0 mm 3 mps 732 mmHg 84%
    03:00 -2°C° 0 mm 3 mps 732 mmHg 84%
    04:00 -2°C° 0 mm 3 mps 732 mmHg 82%
    05:00 -2°C° 0 mm 3 mps 733 mmHg 80%
    06:00 -2°C° 0 mm 3 mps 733 mmHg 78%
    07:00 -2°C° 0 mm 3 mps 733 mmHg 76%
    08:00 -2°C° 0 mm 3 mps 733 mmHg 73%
    09:00 -2°C° 0 mm 3 mps 734 mmHg 71%
    10:00 -2°C° 0 mm 3 mps 734 mmHg 68%
    11:00 -1°C° 0 mm 3 mps 735 mmHg 66%
    12:00 0°C° 0 mm 3 mps 735 mmHg 64%
    13:00 0°C° 0 mm 3 mps 735 mmHg 65%
    14:00 -1°C° 0 mm 3 mps 736 mmHg 67%
    15:00 -1°C° 0 mm 2 mps 736 mmHg 68%
    16:00 -1°C° 0 mm 3 mps 737 mmHg 71%
    17:00 -2°C° 0 mm 3 mps 737 mmHg 74%
    18:00 -2°C° 0 mm 3 mps 738 mmHg 77%
    19:00 -2°C° 0 mm 3 mps 738 mmHg 80%
    20:00 -2°C° 0 mm 3 mps 739 mmHg 82%
    21:00 -4°C° 0 mm 3 mps 740 mmHg 85%
    22:00 -3°C° 0 mm 2 mps 740 mmHg 86%
    23:00 -3°C° 0 mm 2 mps 741 mmHg 87%

    Tomorrow, 12 December, Tuesday

    Time Temperature Precipitation Wind Pressure Humidity
    00:00 -3°C° 0 mm 2 mps 742 mmHg 88%
    01:00 -3°C° 0 mm 2 mps 742 mmHg 88%
    02:00 -3°C° 0 mm 2 mps 743 mmHg 87%
    03:00 -3°C° 0 mm 2 mps 744 mmHg 87%
    04:00 -3°C° 0 mm 2 mps 744 mmHg 87%
    05:00 -3°C° 0 mm 2 mps 745 mmHg 87%
    06:00 -3°C° 0 mm 2 mps 745 mmHg 87%
    07:00 -2°C° 0 mm 2 mps 745 mmHg 88%
    08:00 -2°C° 0 mm 2 mps 746 mmHg 88%
    09:00 -2°C° 0 mm 2 mps 747 mmHg 88%
    10:00 -1°C° 0 mm 2 mps 747 mmHg 87%
    11:00 +1°C° 0 mm 2 mps 747 mmHg 85%
    12:00 +2°C° 0 mm 2 mps 747 mmHg 83%
    13:00 +1°C° 0 mm 2 mps 747 mmHg 85%
    14:00 +1°C° 0 mm 2 mps 747 mmHg 87%
    15:00 +1°C° 0 mm 2 mps 747 mmHg 88%
    16:00 0°C° 0 mm 3 mps 747 mmHg 90%
    17:00 0°C° 0 mm 3 mps 747 mmHg 91%
    18:00 0°C° 0 mm 3 mps 748 mmHg 92%
    19:00 0°C° 0 mm 3 mps 747 mmHg 92%
    20:00 0°C° 0 mm 4 mps 747 mmHg 92%
    21:00 0°C° 0 mm 4 mps 746 mmHg 92%
    22:00 0°C° 0.2 mm 5 mps 746 mmHg 93%
    23:00 +1°C° 0.2 mm 5 mps 745 mmHg 93%

    Day after tomorrow, 13 December, Wednesday

    Time Temperature Precipitation Wind Pressure Humidity
    00:00 +1°C° 0.2 mm 6 mps 744 mmHg 94%
    01:00 +2°C° 0.4 mm 5 mps 744 mmHg 94%
    02:00 +2°C° 0.4 mm 5 mps 743 mmHg 94%
    03:00 +3°C° 0.4 mm 5 mps 743 mmHg 94%
    04:00 +2°C° 0.2 mm 5 mps 743 mmHg 93%
    05:00 +3°C° 0.2 mm 4 mps 743 mmHg 93%
    06:00 +3°C° 0.2 mm 4 mps 743 mmHg 92%
    07:00 +3°C° 0.2 mm 4 mps 743 mmHg 91%
    08:00 +3°C° 0.2 mm 4 mps 743 mmHg 91%
    09:00 +3°C° 0.2 mm 4 mps 743 mmHg 90%
    10:00 +2°C° 0.1 mm 5 mps 743 mmHg 87%
    11:00 +3°C° 0.1 mm 5 mps 743 mmHg 84%
    12:00 +3°C° 0.1 mm 5 mps 743 mmHg 81%
    13:00 +3°C° 0.1 mm 5 mps 743 mmHg 80%
    14:00 +3°C° 0.1 mm 6 mps 743 mmHg 78%
    15:00 +2°C° 0.1 mm 6 mps 743 mmHg 77%
    16:00 +2°C° 0.3 mm 6 mps 743 mmHg 77%
    17:00 +2°C° 0.3 mm 6 mps 743 mmHg 77%
    18:00 +1°C° 0.3 mm 5 mps 743 mmHg 77%
    19:00 +1°C° 0 mm 5 mps 742 mmHg 77%
    20:00 +1°C° 0 mm 5 mps 742 mmHg 77%
    21:00 0°C° 0 mm 5 mps 742 mmHg 77%
    22:00 +1°C° 0.2 mm 6 mps 740 mmHg 78%
    23:00 0°C° 0.2 mm 7 mps 739 mmHg 79%

    14 December, Thursday

    Time Temperature Precipitation Wind Pressure Humidity
    00:00 +1°C° 0.2 mm 9 mps 737 mmHg 79%
    01:00 +1°C° 1.4 mm 8 mps 736 mmHg 80%
    02:00 +2°C° 1.4 mm 8 mps 734 mmHg 81%
    03:00 +2°C° 1.4 mm 8 mps 733 mmHg 82%
    04:00 +2°C° 0.4 mm 7 mps 732 mmHg 81%
    05:00 +2°C° 0.4 mm 6 mps 732 mmHg 80%
    06:00 +1°C° 0.4 mm 4 mps 732 mmHg 78%
    07:00 +1°C° 0.3 mm 5 mps 732 mmHg 78%
    08:00 0°C° 0.3 mm 5 mps 732 mmHg 77%
    09:00 0°C° 0.3 mm 5 mps 732 mmHg 76%
    10:00 +1°C° 0.1 mm 5 mps 732 mmHg 75%
    11:00 +1°C° 0.1 mm 5 mps 732 mmHg 74%
    12:00 +1°C° 0.1 mm 6 mps 732 mmHg 73%
    13:00 +1°C° 0.1 mm 5 mps 733 mmHg 74%
    14:00 +1°C° 0.1 mm 5 mps 733 mmHg 76%
    15:00 +1°C° 0.1 mm 5 mps 733 mmHg 78%
    16:00 +1°C° 0.2 mm 4 mps 733 mmHg 80%
    17:00 0°C° 0.2 mm 4 mps 733 mmHg 82%
    18:00 0°C° 0.2 mm 4 mps 734 mmHg 84%
    19:00 +1°C° 0.6 mm 3 mps 734 mmHg 85%
    20:00 +1°C° 0.6 mm 3 mps 734 mmHg 86%
    21:00 +1°C° 0.6 mm 3 mps 734 mmHg 88%
    22:00 +1°C° 0.2 mm 3 mps 735 mmHg 86%
    23:00 0°C° 0.2 mm 3 mps 735 mmHg 85%

    15 December, Friday

    Time Temperature Precipitation Wind Pressure Humidity
    00:00 0°C° 0.2 mm 3 mps 735 mmHg 84%
    01:00 -1°C° 0 mm 3 mps 736 mmHg 83%
    02:00 -1°C° 0 mm 3 mps 737 mmHg 81%
    03:00 -1°C° 0 mm 3 mps 737 mmHg 80%
    04:00 -1°C° 0 mm 3 mps 738 mmHg 81%
    05:00 -1°C° 0 mm 3 mps 739 mmHg 81%
    06:00 -1°C° 0 mm 3 mps 739 mmHg 81%
    07:00 -2°C° 0 mm 4 mps 740 mmHg 80%
    08:00 -2°C° 0 mm 4 mps 741 mmHg 80%
    09:00 -2°C° 0 mm 4 mps 742 mmHg 79%
    10:00 -1°C° 0 mm 5 mps 742 mmHg 77%
    11:00 -1°C° 0 mm 6 mps 742 mmHg 75%
    12:00 +1°C° 0 mm 6 mps 743 mmHg 73%
    13:00 +1°C° 0 mm 6 mps 743 mmHg 73%
    14:00 +1°C° 0 mm 6 mps 744 mmHg 74%
    15:00 +1°C° 0 mm 6 mps 744 mmHg 75%
    16:00 +1°C° 0 mm 6 mps 745 mmHg 76%
    17:00 -1°C° 0 mm 6 mps 746 mmHg 77%
    18:00 -1°C° 0 mm 6 mps 747 mmHg 78%
    19:00 0°C° 0 mm 5 mps 748 mmHg 79%
    20:00 -1°C° 0 mm 5 mps 748 mmHg 79%
    21:00 -1°C° 0 mm 5 mps 749 mmHg 80%
    22:00 -1°C° 0 mm 5 mps 750 mmHg 80%
    23:00 -1°C° 0 mm 4 mps 750 mmHg 80%

    16 December, Saturday

    Time Temperature Precipitation Wind Pressure Humidity
    00:00 -1°C° 0 mm 4 mps 750 mmHg 80%
    01:00 -2°C° 0 mm 4 mps 751 mmHg 80%
    02:00 -2°C° 0 mm 4 mps 751 mmHg 81%
    03:00 -1°C° 0 mm 3 mps 751 mmHg 81%
    04:00 -1°C° 0 mm 3 mps 751 mmHg 81%
    05:00 -1°C° 0 mm 3 mps 752 mmHg 81%
    06:00 -1°C° 0 mm 3 mps 752 mmHg 80%
    07:00 -1°C° 0 mm 2 mps 752 mmHg 80%
    08:00 -1°C° 0 mm 2 mps 753 mmHg 80%
    09:00 -1°C° 0 mm 2 mps 753 mmHg 79%
    10:00 +1°C° 0 mm 2 mps 753 mmHg 77%
    11:00 +1°C° 0 mm 2 mps 754 mmHg 74%
    12:00 +2°C° 0 mm 2 mps 754 mmHg 72%
    13:00 +2°C° 0 mm 2 mps 754 mmHg 73%
    14:00 +1°C° 0 mm 2 mps 754 mmHg 75%
    15:00 +1°C° 0 mm 2 mps 754 mmHg 77%
    16:00 +1°C° 0 mm 2 mps 754 mmHg 78%
    17:00 -1°C° 0 mm 2 mps 755 mmHg 79%
    18:00 -1°C° 0 mm 2 mps 755 mmHg 80%
    19:00 -1°C° 0 mm 2 mps 755 mmHg 79%
    20:00 -1°C° 0 mm 2 mps 756 mmHg 78%
    21:00 -1°C° 0 mm 2 mps 756 mmHg 77%
    22:00 +1°C° 0 mm 1 mps 756 mmHg 77%
    23:00 +1°C° 0 mm 1 mps 756 mmHg 76%
    Show more